STARLINK-1263, 45405

Orbit data source: Space-Track

STARLINK-1263, 45405 is a payload satellite owned by SpaceX/Seattle (US) in LEO that was launched on Wed, 18 Mar 2020 UTC via an FALCON 9 launch vehicle from the Air Force Eastern Test Range (AFETR). Payload-class satellites include a variety of spacecraft equipped with specific instruments for various scientific and technological missions. These include communications satellites like Starlink; space stations such as the ISS; scientific satellites like the Hubble; Earth observation satellites from companies like Planet Labs, Umbra, and HawkEye 360; GPS; miniature CubeSats for education and research; and military/defense satellites.

Loading next visibility...
Identifier
45405, 2020-019AX
Orbit
LEO
Country
Flag of USUS
Related business
Manufacturer
SpaceX/Seattle
Mission
Partially operational Commercial Communications
Bus & Motor
STARLINK, Unknown motor
Mass
260 kg wet, ~248 kg dry
Launch date (UTC)
2020-03-18 (6 years ago)
Launch vehicle
FALCON 9
Launch site
Air Force Eastern Test Range (AFETR)
Object type
Payload
Rocket body
Debris
Shape & HBR
Box + 1 Pan, 10.1 m
Radar Cross Section
13.562 m², Large (>1 m²)

Expand to show TLE details & history
Last TLE update: 17 hours ago

TLE from 17 hours ago
0 STARLINK-1263
1 45405U 20019AX  26209.17937152  .00051686  00000-0  13053-2 0  9994
2 45405  53.1524 193.1557 0004444   1.1508 358.9506 15.39332857351531
Epoch: 2026-07-28T04:18Z
TLE epoch observation values (Epoch: 2026-07-28T04:18:17.699Z)
Latitude
-0.00002°
Longitude
-177.27037°
Altitude
445.95 km
Speed
7.648 km/s
True Right ascension
12h 52m 37s
True Declination
0° 00' 00"
Sunlit
Object was in daylight at epoch
Visualization orbit readout
Latitude
Unknown
Longitude
Unknown
Altitude
Unknown
Speed
Unknown
Apparent Right ascension
Unknown
Apparent Declination
Unknown
Sunlit
N/A
Visualization observer readout
Local Sidereal Time
10:37:09
Azimuth
Unknown
Elevation
Unknown
Doppler factor
Unknown
Orbital elements
Apogee altitude
451.373 km
Perigee altitude
445.306 km
Semi-major axis
6,826.477 km
Eccentricity
0.00044
Inclination
53.1524°
RAAN
193.1557°
Arg. of periapsis
1.1508°
True anomaly
358.94967°
Mean anomaly
358.9506°
Eccentric anomaly
358.95013°
Mean motion
3.84812 °/min
Orbital period
93.55 mins
BSTAR
0.0013053
Loading maneuver chart data...
Computing Atmospheric mass density...

Documentation

Showing up to 5 results
|